Winslow, AZ

6:20 PM MST on May 23, 2017 (GMT -0700)
Winslow-Lindbergh Regional

Weather History for KINW - January, 2014

Change the Weather History Date:

Friday, January 31, 2014

  Actual Average Record
Temperature  
Mean Temperature 49 °F 37 °F  
Max Temperature 57 °F 52 °F 68 °F (1963)
Min Temperature 40 °F 22 °F 3 °F (1979)
Degree Days  
Heating Degree Days 16 28  
Month to date heating degree days 859 924  
Since 1 July heating degree days 2820 2803  
Cooling Degree Days 0 0  
Month to date cooling degree days 0 0  
Year to date cooling degree days 0 0  
Moisture  
Dew Point 29 °F    
Average Humidity 50    
Maximum Humidity 70    
Minimum Humidity 29    
Precipitation  
Precipitation T in 0.02 in 0.73 in (1922)
Month to date precipitation T 0.52  
Year to date precipitation T 0.52  
Sea Level Pressure  
Sea Level Pressure 29.67 in    
Wind  
Wind Speed 23 mph (SW)    
Max Wind Speed 40 mph    
Max Gust Speed 49 mph    
Visibility 10 miles    
Events Rain    
T = Trace of Precipitation, MM = Missing Value Source: NWS Daily Summary

Daily Weather History Graph

Daily Weather History Graph

Search for Another Location

Airport or City:

Trip Planner

Search our weather history database for the weather conditions in past years. The results will help you decide how hot, cold, wet, or windy it might be!

Date:

Astronomy

Jan. 31, 2014 Rise Set
Actual Time 7:22 AM MST 5:50 PM MST
Civil Twilight 6:55 AM MST 6:17 PM MST
Nautical Twilight 6:25 AM MST 6:47 PM MST
Astronomical Twilight 5:55 AM MST 7:17 PM MST
Moon 7:38 AM MST (1/31) 7:13 PM MST (1/31)
Length of Visible Light 11h 21m
Length of Day
10h 28m
New Moon, 1% of the Moon is Illuminated
Jan 31
New Moon
Feb 6
First Quarter
Feb 14
Full
Feb 22
Last Quarter
Mar 1
New

Hourly Weather History & Observations

Time (MST) Temp. Windchill Dew Point Humidity Pressure Visibility Wind Dir Wind Speed Gust Speed Precip Events Conditions
12:56 AM 52.0 °F - 24.1 °F 34% 29.59 in 10.0 mi SSW 27.6 mph 36.8 mph N/A   Clear
1:56 AM 51.1 °F - 25.0 °F 36% 29.59 in 10.0 mi SSW 27.6 mph 41.4 mph N/A   Clear
2:56 AM 51.1 °F - 24.1 °F 35% 29.58 in 10.0 mi SSW 28.8 mph 40.3 mph N/A   Clear
3:56 AM 52.0 °F - 25.0 °F 35% 29.59 in 10.0 mi SSW 26.5 mph 40.3 mph N/A   Clear
4:56 AM 51.1 °F - 26.1 °F 38% 29.60 in 10.0 mi SW 24.2 mph 40.3 mph N/A   Clear
5:56 AM 50.0 °F - 26.1 °F 39% 29.61 in 10.0 mi SSW 26.5 mph 35.7 mph N/A   Clear
6:56 AM 48.9 °F - 28.0 °F 44% 29.65 in 10.0 mi SW 20.7 mph 28.8 mph N/A   Clear
7:56 AM 48.9 °F - 30.0 °F 48% 29.64 in 10.0 mi SSW 25.3 mph 31.1 mph N/A   Clear
8:56 AM 52.0 °F - 30.9 °F 45% 29.64 in 10.0 mi SSW 31.1 mph 41.4 mph N/A   Clear
9:56 AM 54.0 °F - 30.9 °F 41% 29.65 in 10.0 mi SW 36.8 mph 44.9 mph N/A   Clear
10:56 AM 55.0 °F - 30.9 °F 40% 29.67 in 10.0 mi SSW 28.8 mph 39.1 mph N/A   Clear
11:56 AM 55.0 °F - 28.9 °F 37% 29.67 in 10.0 mi SSW 27.6 mph 38.0 mph N/A   Partly Cloudy
12:56 PM 55.0 °F - 24.1 °F 30% 29.64 in 10.0 mi SW 26.5 mph 41.4 mph N/A   Scattered Clouds
1:56 PM 54.0 °F - 23.0 °F 30% 29.62 in 10.0 mi SW 36.8 mph 49.5 mph N/A   Clear
2:56 PM 52.0 °F - 21.9 °F 31% 29.63 in 10.0 mi SW 38.0 mph 49.5 mph N/A   Partly Cloudy
3:56 PM 48.0 °F - 34.0 °F 58% 29.68 in 10.0 mi West 29.9 mph 39.1 mph N/A   Overcast
4:56 PM 43.0 °F 36.4 °F 37.0 °F 80% 29.73 in 8.0 mi West 12.7 mph - 0.00 in Rain Light Rain
5:56 PM 43.0 °F 37.2 °F 33.1 °F 68% 29.73 in 10.0 mi West 10.4 mph - 0.00 in   Overcast
6:56 PM 43.0 °F 39.5 °F 34.0 °F 71% 29.75 in 10.0 mi WSW 5.8 mph - N/A   Overcast
7:56 PM 43.0 °F 37.7 °F 30.9 °F 62% 29.75 in 10.0 mi SW 9.2 mph - 0.00 in   Mostly Cloudy
8:56 PM 43.0 °F 35.7 °F 27.0 °F 53% 29.74 in 10.0 mi West 15.0 mph - N/A   Overcast
9:56 PM 41.0 °F 34.3 °F 28.0 °F 60% 29.73 in 10.0 mi SW 11.5 mph - N/A   Clear
10:56 PM 39.9 °F 34.5 °F 28.9 °F 65% 29.73 in 10.0 mi SW 8.1 mph - N/A   Clear
11:56 PM 42.1 °F 33.6 °F 28.9 °F 60% 29.72 in 10.0 mi SW 18.4 mph - N/A   Overcast